TimePST,TemperatureF,Dew PointF,Humidity,Sea Level PressureIn,VisibilityMPH,Wind Direction,Wind SpeedMPH,Gust SpeedMPH,PrecipitationIn,Events,Conditions,WindDirDegrees,DateUTC
12:15 AM,32.0,32.0,100,30.31,0.2,Calm,Calm,-,0.00,,Overcast,0,2012-12-31 08:15:00
12:35 AM,32.0,32.0,100,30.31,0.2,Calm,Calm,-,0.00,,Overcast,0,2012-12-31 08:35:00
12:55 AM,32.0,32.0,100,30.31,0.5,Calm,Calm,-,0.00,,Overcast,0,2012-12-31 08:55:00
1:15 AM,32.0,32.0,100,30.31,0.2,Calm,Calm,-,0.00,,Overcast,0,2012-12-31 09:15:00
1:35 AM,32.0,32.0,100,30.31,0.2,Calm,Calm,-,0.00,,Overcast,0,2012-12-31 09:35:00
1:55 AM,32.0,32.0,100,30.31,0.5,Calm,Calm,-,0.00,,Overcast,0,2012-12-31 09:55:00
2:15 AM,32.0,32.0,100,30.32,0.8,Calm,Calm,-,0.00,,Overcast,0,2012-12-31 10:15:00
2:35 AM,32.0,32.0,100,30.32,1.5,Calm,Calm,-,0.00,,Mostly Cloudy,0,2012-12-31 10:35:00
3:15 AM,32.0,32.0,100,30.31,5.0,East,3.5,-,0.00,,Scattered Clouds,90,2012-12-31 11:15:00
3:55 AM,32.0,32.0,100,30.30,6.0,Calm,Calm,-,0.00,,Overcast,0,2012-12-31 11:55:00
4:15 AM,32.0,32.0,100,30.29,9.0,Calm,Calm,-,0.00,,Overcast,0,2012-12-31 12:15:00
4:55 AM,33.8,33.8,100,30.28,10.0,ENE,5.8,-,0.00,,Overcast,60,2012-12-31 12:55:00
5:15 AM,33.8,33.8,100,30.28,10.0,NE,5.8,-,0.00,,Overcast,50,2012-12-31 13:15:00
5:35 AM,32.0,32.0,100,30.27,10.0,NE,6.9,-,0.00,,Overcast,50,2012-12-31 13:35:00
5:55 AM,33.8,33.8,100,30.27,10.0,NE,9.2,-,0.00,,Overcast,50,2012-12-31 13:55:00
6:15 AM,33.8,33.8,100,30.27,10.0,NE,6.9,-,0.00,,Overcast,50,2012-12-31 14:15:00
6:35 AM,33.8,32.0,93,30.27,10.0,NE,5.8,-,0.00,,Overcast,50,2012-12-31 14:35:00
6:55 AM,33.8,32.0,93,30.27,10.0,NE,5.8,-,0.00,,Overcast,50,2012-12-31 14:55:00
7:15 AM,33.8,32.0,93,30.28,10.0,NE,6.9,-,0.00,,Overcast,50,2012-12-31 15:15:00
7:35 AM,33.8,32.0,93,30.28,10.0,North,4.6,-,0.00,,Overcast,350,2012-12-31 15:35:00
7:55 AM,33.8,32.0,93,30.29,10.0,NE,3.5,-,0.00,,Overcast,40,2012-12-31 15:55:00
8:15 AM,33.8,32.0,93,30.29,10.0,NNE,3.5,-,0.00,,Overcast,30,2012-12-31 16:15:00
8:35 AM,33.8,33.8,100,30.30,8.0,Calm,Calm,-,0.00,,Overcast,0,2012-12-31 16:35:00
8:55 AM,33.8,33.8,100,30.31,8.0,Calm,Calm,-,0.00,,Overcast,0,2012-12-31 16:55:00
9:15 AM,33.8,33.8,100,30.31,7.0,Calm,Calm,-,0.00,,Overcast,0,2012-12-31 17:15:00
9:35 AM,33.8,33.8,100,30.32,7.0,Calm,Calm,-,0.00,,Overcast,0,2012-12-31 17:35:00
9:55 AM,33.8,33.8,100,30.33,8.0,Calm,Calm,-,0.00,,Scattered Clouds,0,2012-12-31 17:55:00
10:15 AM,35.6,33.8,93,30.33,7.0,Calm,Calm,-,0.00,,Mostly Cloudy,0,2012-12-31 18:15:00
10:55 AM,35.6,35.6,100,30.34,7.0,Calm,Calm,-,0.00,,Partly Cloudy,0,2012-12-31 18:55:00
11:15 AM,35.6,35.6,100,30.35,8.0,Calm,Calm,-,0.00,,Partly Cloudy,0,2012-12-31 19:15:00
11:35 AM,35.6,35.6,100,30.35,7.0,Calm,Calm,-,0.00,,Mostly Cloudy,0,2012-12-31 19:35:00
11:55 AM,35.6,33.8,93,30.35,8.0,Calm,Calm,-,0.00,,Mostly Cloudy,0,2012-12-31 19:55:00
12:15 PM,35.6,35.6,100,30.35,7.0,Calm,Calm,-,0.00,,Mostly Cloudy,0,2012-12-31 20:15:00
12:35 PM,37.4,35.6,93,30.34,6.0,Calm,Calm,-,0.00,,Overcast,0,2012-12-31 20:35:00
12:55 PM,37.4,37.4,100,30.33,8.0,North,4.6,-,0.00,,Scattered Clouds,360,2012-12-31 20:55:00
1:15 PM,37.4,37.4,100,30.33,8.0,North,6.9,-,0.00,,Clear,350,2012-12-31 21:15:00
1:35 PM,37.4,37.4,100,30.33,8.0,North,5.8,-,0.00,,Partly Cloudy,350,2012-12-31 21:35:00
1:55 PM,39.2,39.2,100,30.34,8.0,NW,3.5,-,0.00,,Partly Cloudy,320,2012-12-31 21:55:00
2:15 PM,39.2,39.2,100,30.33,8.0,WNW,3.5,-,0.00,,Partly Cloudy,300,2012-12-31 22:15:00
2:35 PM,39.2,37.4,93,30.33,7.0,NW,3.5,-,0.00,,Scattered Clouds,320,2012-12-31 22:35:00
3:15 PM,39.2,37.4,93,30.35,8.0,NW,6.9,-,0.00,,Mostly Cloudy,320,2012-12-31 23:15:00
3:35 PM,39.2,37.4,93,30.35,9.0,NNW,6.9,-,0.00,,Overcast,330,2012-12-31 23:35:00
3:55 PM,37.4,37.4,100,30.36,8.0,NNW,6.9,-,0.00,,Overcast,330,2012-12-31 23:55:00
4:15 PM,37.4,37.4,100,30.37,8.0,NNW,6.9,-,0.00,,Overcast,330,2013-01-01 00:15:00
4:35 PM,37.4,35.6,93,30.37,8.0,NW,6.9,-,0.00,,Overcast,320,2013-01-01 00:35:00
4:55 PM,35.6,35.6,100,30.37,10.0,NNW,8.1,-,0.00,,Overcast,330,2013-01-01 00:55:00
5:15 PM,35.6,35.6,100,30.36,10.0,NW,9.2,-,0.00,,Scattered Clouds,320,2013-01-01 01:15:00
5:35 PM,35.6,35.6,100,30.36,10.0,NW,10.4,-,0.00,,Clear,310,2013-01-01 01:35:00
5:55 PM,35.6,35.6,100,30.37,10.0,NW,10.4,-,0.00,,Clear,310,2013-01-01 01:55:00
6:15 PM,35.6,35.6,100,30.37,10.0,NNW,11.5,-,0.00,,Clear,330,2013-01-01 02:15:00
6:35 PM,35.6,35.6,100,30.39,10.0,NNW,8.1,-,0.00,,Clear,330,2013-01-01 02:35:00
6:55 PM,35.6,35.6,100,30.39,10.0,NNW,5.8,-,0.00,,Clear,330,2013-01-01 02:55:00
7:15 PM,35.6,35.6,100,30.40,9.0,Calm,Calm,-,0.00,,Partly Cloudy,0,2013-01-01 03:15:00
7:35 PM,33.8,33.8,100,30.40,10.0,East,5.8,-,0.00,,Clear,80,2013-01-01 03:35:00
7:55 PM,33.8,33.8,100,30.42,9.0,Calm,Calm,-,0.00,,Scattered Clouds,0,2013-01-01 03:55:00
8:15 PM,32.0,32.0,100,30.41,8.0,Calm,Calm,-,0.00,,Partly Cloudy,0,2013-01-01 04:15:00
8:35 PM,32.0,32.0,100,30.42,8.0,Calm,Calm,-,0.00,,Clear,0,2013-01-01 04:35:00
8:55 PM,32.0,32.0,100,30.42,8.0,NNW,3.5,-,0.00,,Clear,330,2013-01-01 04:55:00
9:15 PM,32.0,32.0,100,30.43,9.0,North,4.6,-,0.00,,Clear,350,2013-01-01 05:15:00
9:35 PM,32.0,32.0,100,30.43,10.0,ENE,5.8,-,0.00,,Clear,60,2013-01-01 05:35:00
9:55 PM,32.0,32.0,100,30.44,8.0,ENE,8.1,-,0.00,,Clear,70,2013-01-01 05:55:00
10:15 PM,32.0,32.0,100,30.45,9.0,NE,5.8,-,0.00,,Clear,40,2013-01-01 06:15:00
10:35 PM,32.0,32.0,100,30.45,9.0,Calm,Calm,-,0.00,,Clear,0,2013-01-01 06:35:00
10:55 PM,32.0,32.0,100,30.47,8.0,WNW,3.5,-,0.00,,Mostly Cloudy,300,2013-01-01 06:55:00
11:15 PM,32.0,32.0,100,30.47,7.0,Calm,Calm,-,0.00,,Overcast,0,2013-01-01 07:15:00
11:35 PM,32.0,32.0,100,30.47,8.0,ENE,3.5,-,0.00,,Overcast,60,2013-01-01 07:35:00
11:55 PM,32.0,32.0,100,30.48,7.0,Calm,Calm,-,0.00,,Overcast,0,2013-01-01 07:55:00